Regional Weather Roundup
Issued by NWS Cleveland, OH

Home | Current Version | Previous Version | Graphics & Text | Print | Product List | Glossary On
Versions: 1 2 3 4 5 6 7 8 9 10 11 12 13 14 15 16 17 18 19 20 21 22 23 24 25 26 27 28 29 30 31 32 33 34 35 36 37 38 39 40 41 42 43 44 45 46 47 48 49 50
000
ASUS41 KCLE 231800
RWRCLE
OHIO REGIONAL WEATHER ROUNDUP
NATIONAL WEATHER SERVICE WILMINGTON, OH
200 PM EDT SAT JUL 23 2016

NOTE: "FAIR" INDICATES FEW OR NO CLOUDS BELOW 12,000 FEET WITH NO
SIGNIFICANT WEATHER AND/OR OBSTRUCTIONS TO VISIBILITY.

OHZ001>008-015>018-024>027-034-035-043-044-231900-
   NORTHWEST OHIO

CITY           SKY/WX    TMP DP  RH WIND       PRES   REMARKS
DEFIANCE       FAIR      89  69  51 CALM      30.00F HX  93
FINDLAY        PTSUNNY   90  69  50 VRB7      30.00F HX  94
TOLEDO EXPRESS FAIR      87  71  58 SW5       29.99F HX  93
TOLEDO EXEC    FAIR      92  67  43 NW5       29.99F HX  95
LIMA           PTSUNNY   86  73  65 VRB7      30.02F HX  93
$$

OHZ009>014-019>023-028>033-038-089-231900-
   NORTHEAST OHIO

CITY           SKY/WX    TMP DP  RH WIND       PRES   REMARKS
CLE-HOPKINS    FAIR      92  70  48 N14       30.01R HX  97
CLE-LAKEFRONT  FAIR      85  75  72 NW8       29.99R HX  93
CUY CO. ARPT   MOSUNNY   88  73  62 W14       30.02R HX  96
LORAIN-ELYRIA  FAIR      88  71  57 NW10      30.01R HX  94
ASHTABULA      FAIR      88  59  37 N8        30.01R
AKRON-CANTON   FAIR      92  69  47 NW12      30.01R HX  97
WOOSTER        NOT AVBL
MANSFIELD      FAIR      88  72  58 W8        30.03R HX  94
YOUNGSTOWN     FAIR      90  57  32 VRB5      30.01S
$$

OHZ042-051>053-060>062-070>072-077>081-231900-
  SOUTHWEST OHIO

CITY           SKY/WX    TMP DP  RH WIND       PRES   REMARKS
CINC-COVINGTON FAIR      90  71  53 W6        30.02S HX  96
CINC-LUNKEN    FAIR      90  74  59 SE6       30.00S HX  99
HAMILTON       FAIR      91  72  53 VRB6      30.02S HX  98
DAYTON         NOT AVBL
WRIGHT-PAT AFB NOT AVBL
DAYTON GENERAL FAIR      88  68  51 W7        30.02S HX  91
WILMINGTON     FAIR      88  72  58 SW8       30.03R HX  94
$$

OHZ036-037-039>041-045>050-054>059-063>069-073>076-082>088-231900-
  CENTRAL AND SOUTHEAST OHIO

CITY           SKY/WX    TMP DP  RH WIND       PRES   REMARKS
COLUMBUS       PTSUNNY   88  71  57 W8        30.00F HX  94
OSU AIRPORT    PTSUNNY   88  72  58 W8        30.01S HX  94
BOLTON FIELD   NOT AVBL
RICKENBACK AFB NOT AVBL
NEWARK         PTSUNNY   88  72  58 SW6       30.00F HX  94
MARION         PTSUNNY   88  71  57 NW9       30.02S HX  94
LANCASTER      FAIR      88  75  65 W6        30.01S HX  97
ZANESVILLE     FAIR      91  69  48 CALM      30.00F HX  96
NEW PHILLY     PTSUNNY   93  68  43 W9        29.99S HX  97
$$



USA.gov is the U.S. government's official web portal to all federal, state and local government web resources and services.